Regional Weather Roundup
Issued by NWS

Home | Current Version | Previous Version | Text Only | Print | Product List | Glossary Off
Versions: 1 2 3 4 5 6 7 8 9 10 11 12 13 14 15 16 17 18 19 20 21 22 23 24 25 26 27 28 29 30 31 32 33 34 35 36 37 38 39 40 41 42 43 44 45 46 47 48 49 50

000
ASUS43 KLMK 210102
RWRKY
KENTUCKY REGIONAL WEATHER ROUNDUP
NATIONAL WEATHER SERVICE LOUISVILLE KY
900 PM EDT WED AUG 20 2014

NOTE "FAIR" INDICATES FEW OR NO CLOUDS BELOW 12,000 FEET
WITH NO SIGNIFICANT WEATHER AND/OR OBSTRUCTIONS TO VISIBILITY.

KYZ001>023-026-027-061>063-070>075-210200-
WESTERN AND SOUTH CENTRAL KENTUCKY

CITY           SKY/WX    TMP DP  RH WIND       PRES   REMARKS
PADUCAH        MOCLDY    85  76  74 SE3       29.97R HX  94
HENDERSON      MOCLDY    77  66  69 S5        29.98R
OWENSBORO      MOCLDY    80  74  82 S12       30.01R
HOPKINSVILLE   TSTM      73  73 100 SW6       30.06R FOG
BOWLING GREEN  MOCLDY    73  69  87 CALM      30.04R
GLASGOW        CLOUDY    71  71 100 S5        30.05S
$$

KYZ024-025-028>034-038-045-046-053-210200-
NORTH CENTRAL KENTUCKY

CITY           SKY/WX    TMP DP  RH WIND       PRES   REMARKS
LOUISVILLE/SDF MOCLDY    80  73  79 S12       30.00R
LOUISVILLE/LOU MOCLDY    79  72  79 S6        30.01R
FORT KNOX      CLOUDY    76  72  88 S2        30.01R
$$

KYZ035>037-039>044-047>052-055>060-089>105-210200-
NORTHEAST KENTUCKY

CITY           SKY/WX    TMP DP  RH WIND       PRES   REMARKS
LEXINGTON      CLOUDY    71  68  90 S8        30.05R
COVINGTON      MOCLDY    72  68  87 SW6       30.00R
FRANKFORT      MOCLDY    72  69  90 S7        30.02R
$$

KYZ054-064>069-076>088-106>120-210200-
SOUTHEAST KENTUCKY

CITY           SKY/WX    TMP DP  RH WIND       PRES   REMARKS
JACKSON        CLOUDY    69  67  93 CALM      30.07R
LONDON         CLOUDY    72  68  87 SW5       30.11R
SOMERSET       CLOUDY    68  68 100 SE3       30.10R
MIDDLESBORO    CLOUDY    69  69  99 CALM      30.12F
MONTICELLO     CLOUDY    70  69  96 CALM      30.10S
$$




USA.gov is the U.S. government's official web portal to all federal, state and local government web resources and services.